Wind_Speed
42 44 45 43 42 41 40 41 41 41 41 43 44 44 44 45 46 45 45 45 46 46 46 46 46 46 45 43 42 41 40 39 39 38 37 36 35 35 35 34 34 34 34 34
40 42 42 41 41 40 39 39 40 40 40 41 43 44 44 46 46 45 45 45 45 45 45 45 45 45 44 44 42 41 40 39 39 38 37 37 37 36 36 36 35 35 36 36
37 39 41 41 41 38 37 37 38 38 39 40 42 45 45 45 46 47 46 45 45 45 44 44 45 45 45 44 44 43 42 41 40 40 39 39 38 38 37 37 37 38 38 38
35 38 40 40 39 37 35 34 35 36 38 38 40 42 43 44 45 45 45 45 45 45 44 44 44 45 45 44 43 43 42 41 41 41 40 40 39 39 39 39 39 39 39 39
33 36 37 38 37 35 32 31 32 34 35 36 38 39 39 41 43 42 43 44 45 45 45 44 45 45 45 45 44 43 43 42 42 41 41 40 40 40 40 40 40 40 40 40
30 33 35 36 35 33 31 29 29 31 33 35 35 37 37 38 38 38 41 42 43 45 46 45 45 45 45 45 45 45 44 43 43 43 42 42 41 41 41 41 41 41 41 42
27 30 33 34 34 33 31 29 30 30 32 32 32 34 34 35 36 37 39 41 42 44 45 46 45 45 45 45 45 45 45 44 44 44 44 43 43 42 42 41 41 42 42 43
23 26 30 33 33 32 30 29 29 29 29 28 29 31 30 32 34 36 38 39 41 42 43 45 45 46 46 45 45 45 45 44 44 44 44 43 43 43 42 42 43 43 43 43
20 24 28 30 31 31 30 29 27 28 28 28 28 27 27 29 32 34 35 37 39 41 42 43 44 45 46 46 45 44 44 44 43 43 43 43 43 43 43 43 43 43 42 42
17 20 23 27 29 29 29 28 28 27 26 27 26 25 25 27 30 32 34 35 37 39 41 42 42 43 44 45 45 44 44 44 43 43 43 42 42 42 42 42 42 42 42 42
15 16 19 22 25 26 27 27 27 26 25 25 25 24 23 25 27 30 33 34 36 37 39 40 41 41 41 42 43 43 42 42 42 42 41 41 41 41 41 41 41 41 41 41
13 15 17 19 22 24 25 25 25 26 25 24 24 23 22 23 25 28 30 32 34 35 37 38 39 40 40 40 41 41 41 41 41 40 40 40 40 40 40 40 40 40 40 40
12 13 15 18 20 22 24 23 24 25 26 25 25 23 21 21 22 24 27 29 31 33 35 36 38 39 39 39 39 40 40 40 40 39 39 39 39 39 39 39 39 39 39 39
12 13 14 16 18 20 21 22 24 25 26 25 24 23 22 22 22 22 24 26 28 31 33 34 36 37 38 38 38 38 38 38 38 38 38 38 38 37 37 37 37 37 36 36
12 13 14 16 19 20 20 21 22 23 24 25 24 24 22 22 22 22 23 24 26 27 29 31 32 33 35 35 36 36 36 36 37 36 36 36 36 36 35 35 35 35 35 35
13 13 14 15 18 20 20 21 22 22 23 23 23 23 22 23 23 23 23 23 24 25 27 28 29 30 31 31 32 33 33 34 34 34 34 34 34 34 34 34 34 33 33 33
14 14 15 16 18 19 19 20 21 21 22 23 24 22 24 23 23 23 24 24 23 24 24 25 25 26 28 29 29 30 31 31 31 31 31 31 32 32 32 32 31 31 31 31
15 16 17 16 17 18 18 19 20 20 21 22 23 24 24 22 23 23 24 24 23 23 23 23 23 24 25 26 27 28 28 29 29 29 29 29 29 30 29 29 29 30 30 30
16 17 18 18 18 17 17 17 18 19 20 21 21 22 22 22 22 23 22 22 21 21 22 22 23 23 24 24 25 26 26 27 27 27 27 27 27 27 27 27 28 28 28 28
16 17 17 17 17 17 16 16 17 17 17 18 19 20 20 20 21 21 21 21 21 21 21 22 22 22 23 24 24 24 24 25 25 25 25 25 25 25 25 26 26 26 26 27
17 17 17 17 17 16 16 16 16 17 16 17 18 19 19 19 20 21 20 20 20 21 21 22 22 22 22 23 23 23 23 23 24 24 24 24 24 24 24 24 24 25 25 26
16 17 17 17 16 15 16 16 16 16 16 17 17 18 18 18 19 19 19 20 20 21 21 21 21 21 21 22 22 22 22 23 23 23 23 23 23 23 23 23 23 24 24 25
17 17 17 17 17 16 16 16 16 16 16 16 16 17 17 18 19 19 19 20 20 20 20 20 21 21 21 21 21 21 21 22 22 22 22 22 22 22 23 23 23 23 23 24
18 17 17 17 17 17 17 17 17 17 17 17 17 17 18 18 19 20 20 20 20 20 20 21 21 21 21 21 21 21 21 21 21 21 22 22 22 22 22 22 22 22 23 23
19 18 18 18 18 18 18 18 18 18 18 18 18 18 19 19 20 20 20 20 20 21 21 21 21 21 21 21 21 21 21 21 21 22 22 22 22 22 22 22 22 23 23 24
20 20 18 18 19 19 18 18 18 18 19 19 19 20 20 20 21 21 21 21 21 21 21 21 21 21 21 22 22 21 22 22 22 22 22 22 22 22 23 23 23 24 24 25
Wind_Direction
196 200 202 204 205 207 211 215 217 218 220 223 223 222 222 224 224 224 224 225 225 225 225 226 227 228 230 232 234 237 239 241 244 247 250 253 256 259 262 265 269 272 274 277
195 197 198 201 203 205 208 212 214 217 220 223 222 221 221 223 224 224 224 225 226 227 227 227 228 229 231 233 235 237 240 242 245 248 251 254 257 260 263 266 269 271 274 276
193 193 195 198 200 202 206 210 213 216 220 223 224 223 223 224 225 225 225 225 226 227 228 229 230 231 232 234 236 238 240 243 246 249 252 255 258 261 264 266 268 270 273 276
189 190 193 195 197 200 204 208 212 215 220 223 225 226 224 225 226 226 226 227 228 229 229 230 231 232 233 235 236 239 241 244 247 250 253 256 258 261 264 266 268 271 273 276
184 188 191 192 194 198 203 207 212 217 222 225 227 228 225 227 228 228 228 228 229 229 230 231 232 233 234 236 237 239 242 245 248 250 253 256 258 261 263 266 268 270 273 276
184 187 189 190 193 195 199 204 209 216 222 227 227 230 225 227 228 228 228 228 229 229 230 231 232 234 235 237 238 240 242 245 248 251 254 256 259 261 263 265 267 270 273 275
182 186 188 188 192 194 196 200 205 211 218 224 227 230 226 224 226 226 226 227 228 229 231 232 233 234 236 237 239 241 243 246 249 252 254 256 259 261 263 265 267 270 272 274
181 185 186 188 191 194 197 203 208 214 220 224 227 229 226 224 225 225 226 227 228 229 230 232 233 234 236 238 240 242 244 246 249 251 254 256 258 260 262 265 267 270 271 273
181 185 188 191 194 197 202 207 210 217 222 226 228 229 228 225 225 226 227 228 229 230 231 232 234 235 236 238 240 242 244 246 249 251 253 256 258 260 262 265 267 269 271 273
174 182 188 193 196 202 205 210 213 217 222 227 229 230 229 225 224 225 226 228 229 230 231 231 233 235 236 238 240 242 243 246 248 250 253 255 257 259 262 264 267 269 271 273
177 186 191 196 201 205 207 209 214 219 224 229 232 233 231 228 226 227 227 228 228 230 231 232 232 234 235 237 239 241 243 245 247 249 252 255 257 259 262 264 267 269 271 273
186 191 197 201 204 207 208 209 214 220 227 231 235 236 234 233 231 230 230 230 230 231 232 232 233 234 235 237 239 240 242 244 246 249 251 254 256 259 262 264 266 269 271 273
195 202 204 208 211 212 212 214 221 226 229 232 234 236 237 236 235 234 233 232 232 232 233 233 235 236 237 238 240 241 243 245 247 249 251 254 257 260 262 264 266 269 271 272
207 213 213 215 215 215 217 222 226 230 233 237 239 239 237 238 237 236 235 234 234 235 235 236 237 238 239 240 242 243 244 246 247 249 252 255 258 260 262 264 266 268 270 272
216 216 217 219 219 218 221 225 230 235 236 238 238 238 236 236 236 237 236 236 236 236 237 237 239 239 240 241 243 244 245 246 248 251 253 256 258 260 262 264 266 268 270 272
223 224 223 224 224 224 226 229 233 236 236 238 238 236 236 236 234 235 235 235 235 237 237 238 238 239 240 241 243 244 246 248 250 252 254 255 257 259 261 263 265 267 269 271
231 231 230 230 230 230 231 233 236 237 237 237 236 235 236 236 233 233 234 236 236 237 238 239 239 240 241 242 244 245 246 248 249 251 253 254 256 258 260 262 264 267 269 272
236 235 234 235 235 237 236 236 238 237 237 237 235 234 236 235 233 233 234 236 237 237 237 238 239 241 242 243 244 245 246 247 249 251 252 254 256 257 260 263 265 267 270 273
237 237 237 238 240 239 238 238 238 238 238 238 234 233 234 233 232 233 235 236 236 237 238 240 241 242 243 244 245 245 246 247 248 250 252 253 255 258 261 264 266 269 270 273
238 238 238 237 239 238 238 239 239 239 238 236 234 233 233 232 232 233 235 235 235 238 239 241 243 245 245 246 246 247 247 248 248 249 251 253 255 258 262 264 267 269 271 275
240 238 237 236 237 236 235 236 236 236 236 234 234 234 234 233 232 233 236 237 238 240 242 244 246 246 247 247 247 247 247 248 247 248 250 253 256 259 262 264 267 270 273 277
241 240 238 237 237 234 234 235 235 237 236 234 234 232 232 232 233 235 237 239 240 242 244 246 246 246 247 246 246 246 247 247 248 249 251 254 256 258 261 265 269 272 274 277
241 241 239 238 237 235 235 235 236 237 235 235 234 232 233 233 233 235 238 239 240 242 245 246 247 246 246 246 245 246 247 247 248 249 252 254 256 259 263 267 270 272 275 277
240 240 239 237 237 237 237 238 238 237 235 235 235 236 236 236 237 238 240 242 242 244 247 247 247 246 246 246 246 247 247 248 248 250 253 255 258 261 264 267 270 273 275 278
239 240 239 238 237 238 239 240 240 240 239 238 239 239 240 240 240 240 242 243 244 246 248 248 247 246 246 247 248 248 248 249 251 253 255 257 259 261 264 267 269 273 276 279
237 239 239 239 240 241 242 242 243 243 242 242 242 243 243 244 244 244 245 246 247 247 247 248 247 247 247 248 249 250 250 252 254 256 257 258 260 262 265 268 270 273 276 279
Height
5614 5625 5635 5646 5655 5664 5672 5680 5687 5694 5700 5706 5713 5720 5726 5731 5737 5744 5750 5756 5762 5769 5775 5780 5785 5791 5796 5801 5805 5809 5812 5815 5818 5821 5823 5825 5827 5827 5828 5829 5829 5829 5828 5828
5611 5622 5633 5641 5650 5658 5666 5674 5681 5688 5693 5699 5705 5712 5717 5722 5729 5737 5743 5749 5755 5761 5767 5773 5778 5783 5788 5793 5797 5801 5804 5807 5810 5813 5815 5817 5819 5820 5821 5822 5822 5821 5821 5820
5609 5620 5628 5636 5645 5653 5662 5670 5677 5683 5688 5692 5698 5704 5710 5717 5723 5729 5736 5742 5748 5754 5760 5766 5771 5776 5781 5785 5789 5793 5796 5799 5802 5805 5807 5809 5811 5812 5813 5814 5813 5813 5812 5812
5607 5616 5625 5633 5642 5650 5658 5666 5672 5677 5682 5687 5693 5699 5706 5711 5716 5723 5730 5736 5742 5747 5753 5758 5763 5768 5772 5777 5781 5785 5788 5791 5794 5797 5799 5801 5803 5804 5805 5805 5805 5804 5804 5803
5607 5615 5622 5631 5640 5648 5656 5662 5668 5673 5678 5683 5687 5693 5701 5704 5710 5718 5724 5729 5735 5740 5745 5750 5755 5760 5764 5768 5772 5776 5780 5783 5786 5788 5790 5792 5794 5795 5796 5796 5796 5796 5795 5794
5608 5614 5621 5629 5637 5645 5652 5659 5664 5668 5672 5677 5683 5687 5694 5699 5706 5712 5717 5721 5726 5731 5736 5741 5746 5751 5756 5760 5764 5767 5771 5774 5777 5779 5781 5783 5785 5786 5787 5787 5787 5787 5786 5785
5608 5614 5621 5627 5634 5641 5647 5655 5660 5663 5667 5672 5677 5680 5689 5695 5699 5704 5708 5713 5718 5723 5728 5733 5737 5742 5747 5751 5755 5758 5762 5765 5768 5770 5772 5774 5776 5777 5777 5778 5778 5777 5777 5776
5609 5615 5620 5627 5633 5639 5645 5651 5657 5661 5664 5669 5672 5676 5684 5688 5692 5696 5701 5705 5710 5714 5719 5724 5728 5733 5737 5741 5746 5749 5753 5756 5758 5761 5763 5765 5766 5767 5768 5768 5768 5768 5767 5766
5611 5616 5621 5626 5632 5637 5642 5647 5653 5657 5660 5664 5667 5672 5677 5682 5686 5690 5694 5698 5702 5706 5710 5715 5719 5723 5728 5732 5736 5740 5743 5746 5749 5751 5753 5755 5756 5757 5758 5758 5758 5758 5757 5756
5613 5617 5621 5625 5630 5635 5640 5645 5649 5653 5656 5659 5663 5667 5672 5676 5679 5683 5687 5691 5694 5698 5702 5706 5710 5714 5718 5723 5727 5730 5734 5737 5739 5742 5744 5745 5747 5748 5748 5749 5748 5748 5747 5746
5616 5619 5623 5626 5629 5634 5638 5642 5646 5649 5653 5656 5659 5665 5667 5670 5673 5676 5679 5683 5686 5690 5694 5697 5701 5705 5709 5713 5717 5721 5724 5727 5730 5732 5734 5736 5737 5738 5739 5739 5739 5738 5738 5737
5617 5620 5622 5625 5629 5632 5635 5639 5643 5647 5649 5652 5655 5661 5661 5664 5667 5670 5673 5676 5679 5683 5686 5690 5694 5697 5701 5705 5708 5712 5715 5718 5720 5723 5725 5726 5727 5728 5729 5729 5729 5729 5728 5727
5617 5619 5622 5624 5628 5630 5632 5636 5639 5642 5645 5647 5650 5657 5657 5659 5661 5664 5667 5669 5673 5676 5679 5682 5686 5689 5693 5696 5699 5702 5706 5708 5711 5713 5715 5717 5718 5719 5719 5720 5720 5719 5719 5718
5616 5618 5621 5623 5625 5627 5630 5633 5635 5638 5640 5643 5646 5649 5652 5654 5656 5658 5661 5663 5666 5669 5672 5675 5678 5681 5685 5688 5691 5694 5696 5699 5702 5704 5706 5707 5709 5709 5710 5710 5710 5710 5709 5708
5615 5617 5618 5620 5622 5624 5627 5629 5631 5633 5636 5638 5641 5643 5647 5649 5651 5653 5655 5657 5660 5662 5665 5668 5671 5674 5676 5679 5682 5685 5688 5690 5693 5695 5696 5698 5699 5700 5701 5701 5701 5701 5700 5699
5612 5614 5615 5617 5618 5620 5622 5624 5626 5628 5630 5633 5635 5638 5641 5643 5645 5647 5649 5652 5654 5656 5658 5661 5663 5666 5669 5671 5674 5677 5679 5681 5684 5686 5687 5689 5690 5691 5692 5692 5692 5692 5691 5690
5609 5611 5612 5614 5615 5616 5619 5621 5622 5624 5625 5627 5630 5634 5635 5637 5639 5642 5644 5646 5648 5650 5652 5655 5657 5659 5662 5664 5666 5669 5671 5673 5675 5677 5679 5680 5681 5682 5683 5683 5683 5683 5682 5682
5606 5607 5608 5610 5612 5613 5617 5616 5617 5619 5620 5622 5625 5627 5629 5632 5634 5636 5638 5640 5643 5645 5647 5649 5651 5653 5655 5657 5659 5662 5664 5666 5667 5669 5671 5672 5673 5674 5675 5675 5675 5675 5674 5673
5602 5603 5604 5606 5607 5609 5611 5612 5613 5614 5616 5617 5620 5622 5624 5626 5628 5631 5633 5635 5637 5639 5641 5643 5645 5647 5649 5651 5652 5654 5656 5658 5660 5661 5663 5664 5665 5666 5667 5667 5667 5666 5666 5665
5597 5599 5601 5601 5602 5605 5608 5608 5608 5611 5612 5613 5615 5617 5619 5621 5624 5627 5628 5630 5632 5634 5636 5637 5639 5641 5643 5644 5646 5648 5649 5651 5652 5654 5656 5657 5658 5658 5659 5659 5659 5659 5658 5657
5593 5594 5596 5597 5598 5600 5603 5603 5605 5608 5609 5609 5610 5612 5614 5616 5619 5621 5623 5625 5627 5628 5630 5632 5633 5635 5636 5638 5639 5641 5643 5644 5646 5647 5648 5649 5650 5651 5651 5651 5651 5651 5651 5650
5588 5590 5591 5592 5594 5598 5598 5599 5601 5602 5603 5604 5606 5608 5610 5612 5614 5616 5618 5620 5621 5623 5625 5626 5628 5629 5630 5632 5633 5635 5636 5638 5639 5640 5642 5643 5643 5644 5644 5644 5644 5644 5643 5642
5584 5586 5587 5589 5592 5592 5593 5594 5596 5597 5599 5600 5602 5604 5605 5607 5609 5611 5613 5614 5616 5618 5619 5621 5622 5623 5625 5626 5627 5629 5630 5631 5633 5634 5635 5636 5636 5637 5637 5637 5637 5636 5636 5635
5579 5580 5582 5584 5585 5587 5588 5589 5591 5593 5594 5596 5598 5599 5601 5603 5604 5606 5608 5609 5611 5612 5613 5615 5616 5617 5619 5620 5621 5623 5624 5625 5626 5627 5628 5629 5630 5630 5630 5630 5630 5629 5629 5628
5574 5575 5577 5578 5580 5582 5583 5585 5586 5588 5590 5591 5593 5594 5596 5598 5599 5601 5602 5604 5605 5606 5608 5609 5610 5611 5613 5614 5615 5616 5618 5619 5620 5621 5622 5622 5623 5623 5623 5623 5623 5622 5621 5620
5568 5570 5572 5574 5575 5577 5579 5580 5581 5583 5584 5586 5588 5589 5591 5592 5594 5595 5596 5598 5599 5600 5602 5603 5604 5605 5607 5608 5609 5610 5611 5612 5613 5614 5615 5615 5616 5616 5616 5616 5615 5615 5614 5613